#timestamp,LO_Frequency,Hit,Temp,Hum 
1480035615.8,286047101.0,N,0.0,0.0
1480035635.6,286047101.0,N,0.0,0.0
1480035655.4,286047101.7,N,0.0,0.0
1480035675.3,286047100.7,N,0.0,0.0
1480035695.1,286047099.6,N,0.0,0.0
1480035715.8,286047101.4,N,0.0,0.0
1480035735.7,286047103.5,N,0.0,0.0
1480035755.5,286047103.0,N,0.0,0.0
1480035775.4,286047105.1,N,0.0,0.0
1480035795.2,286047104.7,N,0.0,0.0
1480035815.0,286047104.6,N,0.0,0.0
1480035815.9,286047104.6,N,0.0,0.0
1480035835.8,286047104.6,N,0.0,0.0
1480035855.6,286047105.0,N,0.0,0.0
1480035875.5,286047105.1,N,0.0,0.0
1480035895.3,286047104.6,N,0.0,0.0
1480035915.1,286047103.7,N,0.0,0.0
1480035935.9,286047106.4,N,0.0,0.0
1480035955.7,286047103.7,N,0.0,0.0
1480035975.5,286047103.7,N,0.0,0.0
1480035995.4,286047106.8,N,0.0,0.0
1480036015.2,286047103.7,N,0.0,0.0
1480036035.1,286047103.8,N,0.0,0.0
1480036036.0,286047103.8,N,0.0,0.0
1480036055.8,286047106.4,N,0.0,0.0
1480036075.6,286047106.6,N,0.0,0.0
1480036095.5,286047105.9,N,0.0,0.0
1480036115.3,286047105.5,N,0.0,0.0
1480036135.2,286047105.6,N,0.0,0.0
1480036155.9,286047105.9,N,0.0,0.0
1480036175.7,286047106.1,N,0.0,0.0
1480036195.6,286047106.2,N,0.0,0.0
1480036215.4,286047106.4,N,0.0,0.0
1480036235.3,286047106.3,N,0.0,0.0
1480036255.1,286047106.7,N,0.0,0.0
1480036256.0,286047106.7,N,0.0,0.0
1480036275.8,286047106.4,N,0.0,0.0
1480036295.7,286047105.9,N,0.0,0.0
1480036315.5,286047104.3,N,0.0,0.0
1480036335.3,286047104.3,N,0.0,0.0
1480036355.2,286047105.0,N,0.0,0.0
1480036375.0,286047103.9,N,0.0,0.0
1480036375.9,286047103.9,N,0.0,0.0
1480036395.8,286047106.7,N,0.0,0.0
1480036415.6,286047106.2,N,0.0,0.0
1480036435.4,286047106.4,N,0.0,0.0
1480036455.3,286047106.7,N,0.0,0.0
1480036475.1,286047106.1,N,0.0,0.0
1480036495.9,286047105.6,N,0.0,0.0
1480036515.7,286047103.7,N,0.0,0.0
1480036535.5,286047106.3,N,0.0,0.0
1480036555.4,286047105.8,N,0.0,0.0
1480036575.2,286047105.7,N,0.0,0.0
1480036595.1,286047105.5,N,0.0,0.0
1480036596.0,286047105.5,N,0.0,0.0
1480036615.8,286047106.7,N,0.0,0.0
1480036635.6,286047104.3,N,0.0,0.0
1480036655.5,286047104.3,N,0.0,0.0
1480036675.3,286047103.9,N,0.0,0.0
1480036695.1,286047106.8,N,0.0,0.0
1480036715.9,286047106.7,N,0.0,0.0
1480036735.7,286047106.6,N,0.0,0.0
1480036755.6,286047106.8,N,0.0,0.0
1480036775.4,286047104.1,N,0.0,0.0
1480036795.2,286047106.5,N,0.0,0.0
1480036815.1,286047105.3,N,0.0,0.0
1480036816.0,286047105.3,N,0.0,0.0
1480036835.8,286047108.2,N,0.0,0.0
1480036855.7,286047108.0,N,0.0,0.0
1480036875.5,286047105.5,N,0.0,0.0
1480036895.3,286047108.3,N,0.0,0.0
1480036915.2,286047107.8,N,0.0,0.0
1480036935.0,286047108.1,N,0.0,0.0
1480036935.9,286047108.1,N,0.0,0.0
1480036955.8,286047107.8,N,0.0,0.0
1480036975.6,286047107.9,N,0.0,0.0
1480036995.4,286047107.9,N,0.0,0.0
1480037015.3,286047107.1,N,0.0,0.0
1480037035.1,286047107.4,N,0.0,0.0
1480037055.8,286047107.3,N,0.0,0.0
1480037075.7,286047107.2,N,0.0,0.0
1480037095.5,286047107.2,N,0.0,0.0
1480037115.4,286047107.4,N,0.0,0.0
1480037135.2,286047107.3,N,0.0,0.0
1480037155.0,286047107.1,N,0.0,0.0
1480037155.9,286047107.1,N,0.0,0.0
1480037175.8,286047109.6,N,0.0,0.0
1480037195.6,286047107.6,N,0.0,0.0
1480037215.4,286047108.0,N,0.0,0.0
1480037235.3,286047106.3,N,0.0,0.0
1480037255.1,286047105.6,N,0.0,0.0
1480037275.9,286047108.4,N,0.0,0.0
1480037295.7,286047108.1,N,0.0,0.0
1480037315.5,286047107.1,N,0.0,0.0
1480037335.4,286047109.6,N,0.0,0.0
1480037355.2,286047107.1,N,0.0,0.0
1480037375.1,286047107.5,N,0.0,0.0
1480037376.0,286047107.5,N,0.0,0.0
1480037395.8,286047105.7,N,0.0,0.0
1480037415.6,286047108.4,N,0.0,0.0
1480037435.5,286047108.3,N,0.0,0.0
1480037455.3,286047107.9,N,0.0,0.0
1480037475.1,286047107.3,N,0.0,0.0
1480037495.9,286047106.9,N,0.0,0.0
1480037515.7,286047107.2,N,0.0,0.0
1480037535.6,286047107.3,N,0.0,0.0
1480037555.4,286047106.9,N,0.0,0.0
1480037575.2,286047109.9,N,0.0,0.0
1480037595.1,286047109.4,N,0.0,0.0
1480037596.0,286047109.4,N,0.0,0.0
1480037615.8,286047109.2,N,0.0,0.0
1480037635.7,286047109.7,N,0.0,0.0
1480037655.5,286047109.3,N,0.0,0.0
1480037675.3,286047109.3,N,0.0,0.0
1480037695.2,286047108.7,N,0.0,0.0
1480037715.0,286047108.5,N,0.0,0.0
1480037715.9,286047108.5,N,0.0,0.0
1480037735.8,286047108.8,N,0.0,0.0
1480037755.6,286047109.0,N,0.0,0.0
1480037775.4,286047108.9,N,0.0,0.0
1480037795.3,286047109.0,N,0.0,0.0
1480037815.1,286047108.8,N,0.0,0.0
1480037835.8,286047108.6,N,0.0,0.0
1480037855.7,286047109.0,N,0.0,0.0
1480037875.5,286047109.0,N,0.0,0.0
1480037895.3,286047108.8,N,0.0,0.0
1480037915.2,286047108.9,N,0.0,0.0
1480037935.0,286047108.7,N,0.0,0.0
1480037935.9,286047108.7,N,0.0,0.0
1480037955.8,286047108.7,N,0.0,0.0
1480037975.6,286047111.2,N,0.0,0.0
1480037995.4,286047110.7,N,0.0,0.0
1480038015.3,286047111.0,N,0.0,0.0
1480038035.1,286047111.4,N,0.0,0.0
1480038055.9,286047111.0,N,0.0,0.0
1480038075.7,286047108.6,N,0.0,0.0
1480038095.5,286047111.6,N,0.0,0.0
1480038115.4,286047109.0,N,0.0,0.0
1480038135.2,286047111.5,N,0.0,0.0
1480038155.0,286047109.2,N,0.0,0.0
1480038156.0,286047109.2,N,0.0,0.0
1480038175.8,286047111.0,N,0.0,0.0
1480038195.6,286047110.2,N,0.0,0.0
1480038215.5,286047112.8,N,0.0,0.0
1480038235.3,286047110.1,N,0.0,0.0
1480038255.1,286047110.6,N,0.0,0.0
1480038275.9,286047110.2,N,0.0,0.0
1480038295.7,286047110.1,N,0.0,0.0
1480038315.6,286047110.3,N,0.0,0.0
1480038335.4,286047110.6,N,0.0,0.0
1480038355.2,286047112.7,N,0.0,0.0
1480038375.1,286047112.8,N,0.0,0.0
1480038376.0,286047112.8,N,0.0,0.0
1480038395.8,286047113.2,N,0.0,0.0
1480038415.7,286047111.4,N,0.0,0.0
1480038435.5,286047111.3,N,0.0,0.0
1480038455.3,286047110.8,N,0.0,0.0
1480038475.2,286047111.4,N,0.0,0.0
1480038495.9,286047111.0,N,0.0,0.0
1480038515.7,286047111.1,N,0.0,0.0
1480038535.6,286047109.4,N,0.0,0.0
1480038555.4,286047109.7,N,0.0,0.0
1480038575.3,286047111.2,N,0.0,0.0
1480038595.1,286047111.5,N,0.0,0.0
1480038596.0,286047111.5,N,0.0,0.0
1480038615.8,286047110.3,N,0.0,0.0
1480038635.7,286047113.2,N,0.0,0.0
1480038655.5,286047112.5,N,0.0,0.0
1480038675.3,286047112.7,N,0.0,0.0
1480038695.2,286047110.2,N,0.0,0.0
1480038715.0,286047112.8,N,0.0,0.0
1480038715.9,286047112.8,N,0.0,0.0
1480038735.8,286047112.9,N,0.0,0.0
1480038755.6,286047113.0,N,0.0,0.0
1480038775.4,286047112.9,N,0.0,0.0
1480038795.3,286047113.2,N,0.0,0.0
1480038815.1,286047113.2,N,0.0,0.0
1480038835.9,286047112.5,N,0.0,0.0
1480038855.7,286047112.0,N,0.0,0.0
1480038875.5,286047111.7,N,0.0,0.0
1480038895.4,286047114.4,N,0.0,0.0
1480038915.2,286047112.1,N,0.0,0.0
1480038935.0,286047112.4,N,0.0,0.0
1480038935.9,286047112.4,N,0.0,0.0
1480038955.8,286047112.6,N,0.0,0.0
1480038975.6,286047112.0,N,0.0,0.0
1480038995.5,286047114.6,N,0.0,0.0
1480039015.3,286047114.6,N,0.0,0.0
1480039035.1,286047113.9,N,0.0,0.0
1480039055.9,286047113.7,N,0.0,0.0
1480039075.7,286047113.3,N,0.0,0.0
1480039095.6,286047114.1,N,0.0,0.0
1480039115.4,286047111.7,N,0.0,0.0
1480039135.2,286047114.3,N,0.0,0.0
1480039155.1,286047113.8,N,0.0,0.0
1480039156.0,286047113.8,N,0.0,0.0
1480039175.8,286047116.4,N,0.0,0.0
1480039195.6,286047113.3,N,0.0,0.0
